Location: Flitcham
(52.8000°N, 0.5667°E)
Time: 08:24:11
(UTC+00:00)

Okean 1-7 Rocket - Pass Details

Date: 15 May 2026
Orbit: 611 x 641 km, 82.5° (Epoch: 6 June)

Event Time Altitude Azimuth Distance (km) Brightness Sun altitude
Rises 21:40:07 0° 347° (NNW) 2,927 8.5 -12.5°
Reaches altitude 10° 21:42:22 10° 345° (NNW) 2,019 7.5 -12.7°
Maximum altitude 21:46:49 71° 263° (W) 675 3.8 -13.0°
Enters shadow 21:50:20 16° 181° (S) 1,647 5.2 -13.3°
